Location: Elma
(49.8670°N, 95.9170°W)
Time: 08:44:59
(UTC-05:00)

ISS - Pass Details

Date: 04 April 2019
Orbit: 408 x 410 km, 51.6° (Epoch: 25 April)

Event Time Altitude Azimuth Distance (km) Brightness Sun altitude
Rises 21:35:47 0° 287° (WNW) 2,339 1.7 -15.3°
Reaches altitude 10° 21:38:02 10° 275° (W) 1,474 0.1 -15.6°
Maximum altitude 21:40:56 29° 214° (SW) 788 -2.4 -16.0°
Enters shadow 21:42:01 23° 179° (S) 913 -2.4 -16.2°
